Pt. Reyes RCA field Weather observations

Data are for 10 minute period ending at time listed.
 Day   Time   Solar   Ave.   Ave.  Ave.  Vector    Max.   Stn.   Total 
  of    of     Rad.   Air    Rel.  Wind   Wind     Wind   Baro. Precip.
Year   Day            Temp.  Hum.  Speed  Dir.     Gust   Pres.        
2017   (PST)   W/m2    F      %     mph   deg.      mph    mb.    in.  
-----------------------------------------------------------------------
 143   12:30  865.0    55   90.0     5    261.6     8.9   1011.5  0.00  
 143   12:40  828.0    55   89.4     7    245.0    11.0   1011.5  0.00  
 143   12:50  853.0    56   89.7     8    240.9    13.6   1011.5  0.00  
 143   13:00  834.0    56   89.4     9    239.5    12.3   1011.5  0.00  
 143   13:10  840.0    56   88.8    11    230.8    13.9   1011.5  0.00  
 143   13:20  750.0    56   87.8    10    226.2    14.5   1011.9  0.00  
 143   13:30  791.0    56   87.0    10    227.4    14.0   1011.5  0.00  
 143   13:40  675.0    57   87.1    10    221.5    14.2   1011.9  0.00  
 143   13:50  597.0    57   87.9     9    212.2    13.4   1011.5  0.00  
 143   14:00  569.0    57   87.4     9    190.1    15.3   1011.5  0.00  
 143   14:10  549.0    57   86.9     8    193.8    13.2   1011.5  0.00  
 143   14:20  548.0    57   87.0     7    190.0    12.6   1011.5  0.00  
 143   14:30  507.0    58   87.2     8    163.7    11.2   1011.5  0.00  
 143   14:40  491.0    56   88.4     7    180.0    16.4   1011.5  0.00  
 143   14:50  478.0    57   88.2     7    194.4    11.8   1011.5  0.00  
 143   15:00  449.0    57   88.8     9    225.7    12.9   1011.5  0.00  
 143   15:10  455.0    56   88.9     8    231.2    12.1   1011.5  0.01  
 143   15:20  433.0    56   89.6     9    239.5    12.2   1011.5  0.00  
 143   15:30  378.0    56   90.0    10    236.8    13.2   1011.2  0.00  
 143   15:40  319.0    55   90.6    10    235.2    12.6   1011.2  0.00  
 143   15:50  296.0    55   90.1    10    232.2    12.9   1011.2  0.00  
 143   16:00  272.0    54   91.1    10    236.9    13.7   1011.2  0.00  
 143   16:10  255.0    54   91.6    10    238.6    14.2   1011.2  0.00  
 143   16:20  257.0    55   90.9     9    239.8    12.9   1011.2  0.00  
 143   16:30  232.0    55   91.0     9    232.7    12.3   1011.2  0.00  
 143   16:40  198.0    55   90.7     9    235.4    12.3   1011.2  0.00  
 143   16:50  199.0    54   91.3    10    235.0    14.2   1011.2  0.00  
 143   17:00  206.0    54   91.2     9    234.5    12.6   1011.2  0.00  
 143   17:10  144.0    54   91.3     8    222.5    11.2   1010.8  0.00  
 143   17:20  105.0    54   91.9     7    209.1    10.5   1010.8  0.00  
 143   17:30  108.0    54   92.1     8    223.5    11.2   1010.8  0.00  
 143   17:40   78.0    53   92.5     8    205.4    11.8   1010.8  0.00  
 143   17:50   66.0    53   93.0     7    216.1    10.4   1010.5  0.00  
 143   18:00   54.0    53   92.5     8    208.1    10.7   1010.5  0.00  
 143   18:10   42.0    53   92.4     8    200.7    11.3   1010.5  0.00  
 143   18:20   37.0    53   92.7     6    208.0     8.5   1010.5  0.00  
 143   18:30   27.0    53   92.7     7    199.5     9.6   1010.5  0.00  
 143   18:40   22.0    53   92.9     5    219.4     7.8   1010.5  0.00  
 143   18:50   17.0    53   92.9     5    225.4     7.6   1010.5  0.00  
 143   19:00   10.0    53   92.9     5    231.9     8.7   1010.5  0.00  
 143   19:10    6.0    53   92.8     7    224.2     9.1   1010.5  0.00  
 143   19:20    3.0    53   93.1     5    228.3     6.9   1010.5  0.00  
 143   19:30    1.0    53   93.5     4    226.1     7.9   1010.5  0.00  
 143   19:40    0.0    53   93.7     5    222.6     6.9   1010.2  0.00  
 143   19:50    0.0    53   93.7     4    240.4     6.2   1010.2  0.00  
 143   20:00    0.0    52   93.9     2    241.2     4.1   1010.2  0.00  
 143   20:10    0.0    53   94.2     3    248.9     4.7   1010.2  0.00  
 143   20:20    0.0    52   94.2     2    209.6     4.7   1010.2  0.00  
 143   20:30    0.0    52   94.3     3    251.7     4.7   1009.8  0.00  
 143   20:40    0.0    52   94.5     3    269.1     5.9   1010.2  0.00  
 143   20:50    0.0    52   94.7     2    244.4     2.9   1010.2  0.00  
 143   21:00    0.0    52   94.8     3    211.1     5.3   1010.2  0.00  
 143   21:10    0.0    52   94.8     5    207.9     6.9   1010.2  0.00  
 143   21:20    0.0    52   94.8     4    207.0     6.1   1010.2  0.00  
 143   21:30    0.0    52   95.1     3    207.8     6.4   1010.2  0.00  
 143   21:40    0.0    52   95.1     4    215.1     5.6   1010.2  0.00  
 143   21:50    0.0    52   95.3     5    202.4     7.1   1010.2  0.00  
 143   22:00    0.0    52   95.3     5    198.0     8.0   1010.2  0.00  
 143   22:10    0.0    52   95.4     4    217.9     6.8   1010.2  0.00  
 143   22:20    0.0    52   95.6     4    210.8     5.0   1010.2  0.00  
 143   22:30    0.0    52   95.8     6    176.4     7.2   1009.8  0.00  
 143   22:40    0.0    52   95.9     4    189.2     6.6   1010.2  0.00  
 143   22:50    0.0    52   96.1     5    217.2     7.5   1010.2  0.00  
 143   23:00    0.0    52   96.0     5    226.0     9.8   1010.2  0.00  
 143   23:10    0.0    52   96.1     6    200.1     9.3   1010.2  0.00  
 143   23:20    0.0    52   96.3     6    204.2     8.3   1009.8  0.00  
 143   23:30    0.0    52   96.3     6    203.7     9.6   1009.8  0.00  
 143   23:40    0.0    52   96.5     5    208.5     8.3   1009.5  0.00  
 143   23:50    0.0    52   96.7     5    212.6     7.5   1009.5  0.00  
 144    0:00    0.0    52   96.8     5    202.2     6.8   1009.5  0.00  
 144    0:10    0.0    52   97.0     4    193.9     6.1   1009.1  0.00  
 144    0:20    0.0    52   97.1     4    206.5     7.9   1009.1  0.00  
 144    0:30    0.0    51   97.3     6    252.4     9.3   1009.1  0.00  
 144    0:40    0.0    51   97.5     6    245.8     8.6   1009.1  0.00  
 144    0:50   -1.0    51   97.7     5    256.5     8.1   1009.1  0.00  
 144    1:00   -1.0    51   97.8     6    242.3     9.0   1009.1  0.00  
 144    1:10   -1.0    51   97.9     5    229.5     8.4   1009.1  0.00  
 144    1:20    0.0    51   98.0     5    209.2     8.6   1009.1  0.00  
 144    1:30    0.0    51   98.0     5    194.2     7.2   1009.1  0.00  
 144    1:40    0.0    51   98.1     7    216.0    10.2   1008.8  0.00  
 144    1:50    0.0    51   98.1     6    197.5     9.1   1008.8  0.00  
 144    2:00    0.0    51   98.1     5    231.9     9.3   1008.8  0.00  
 144    2:10    0.0    51   98.1     6    236.4     8.4   1008.8  0.00  
 144    2:20    0.0    51   98.1     5    230.6     7.9   1008.8  0.00  
 144    2:30    0.0    51   98.1     5    211.3     6.9   1008.5  0.00  
 144    2:40    0.0    51   98.1     6    211.5     8.0   1008.5  0.00  
 144    2:50    0.0    51   98.1     6    231.4     8.3   1008.5  0.00  
 144    3:00    0.0    51   98.1     6    232.0     8.2   1008.5  0.00  
 144    3:10    0.0    51   98.1     4    218.6     7.1   1008.1  0.00  
 144    3:20    0.0    51   98.1     3    235.0     5.4   1008.1  0.00  
 144    3:30    0.0    51   98.1     4    217.9     7.0   1008.1  0.00  
 144    3:40    0.0    51   98.1     3    193.9     3.7   1008.1  0.00  
 144    3:50    0.0    51   98.1     3    206.5     6.0   1008.1  0.00  
 144    4:00    0.0    51   98.1     4    211.7     7.5   1007.8  0.00  
 144    4:10    0.0    51   98.0     6    186.2     8.0   1007.8  0.00  
 144    4:20    0.0    51   98.0     5    189.4     8.0   1007.8  0.00  
 144    4:30    0.0    51   98.0     5    184.9     8.8   1007.8  0.00  
 144    4:40    1.0    51   98.0     5    179.2     8.1   1007.8  0.00  
 144    4:50    3.0    51   98.0     4    163.6     6.6   1007.5  0.00  
 144    5:00    3.0    51   98.0     6    184.0     7.5   1007.5  0.00  
 144    5:10    4.0    51   98.0     6    202.7     8.6   1007.5  0.00  
 144    5:20   10.0    51   97.9     6    206.6     8.1   1007.5  0.00  
 144    5:30   10.0    51   97.9     6    187.5     8.8   1007.5  0.00  
 144    5:40   15.0    51   97.8     6    197.5     8.1   1007.5  0.00  
 144    5:50   16.0    51   97.7     6    184.3     8.0   1007.5  0.00  
 144    6:00   23.0    51   97.7     6    204.0     8.0   1007.5  0.00  
 144    6:10   38.0    51   97.6     6    188.7     9.6   1007.5  0.00  
 144    6:20   63.0    52   97.5     6    182.7     8.1   1007.5  0.00  
 144    6:30   61.0    52   97.4     5    182.6     8.5   1007.5  0.00  
 144    6:40   63.0    52   97.3     6    186.9     9.0   1007.5  0.00  
 144    6:50   74.0    52   97.0     8    190.2    11.1   1007.5  0.00  
 144    7:00   71.0    52   96.8     8    175.4    11.7   1007.5  0.00  
 144    7:10   82.0    52   96.8     8    168.6    11.0   1007.5  0.00  
 144    7:20   90.0    52   96.7     9    179.4    12.9   1007.5  0.00  
 144    7:30  106.0    53   96.5     9    178.1    11.9   1007.5  0.00  
 144    7:40  114.0    53   96.2    11    176.7    14.9   1007.5  0.00  
 144    7:50  102.0    53   96.2    11    163.5    16.2   1007.5  0.00  
 144    8:00   79.0    53   96.0    12    161.4    15.7   1007.5  0.00  
 144    8:10   71.0    53   96.0    10    162.0    13.7   1007.5  0.00  
 144    8:20   70.0    53   95.9    11    162.0    13.4   1007.5  0.00  
 144    8:30   78.0    53   96.3    12    163.9    14.8   1007.1  0.00  
 144    8:40  110.0    53   96.6    13    153.9    16.6   1007.5  0.00  
 144    8:50  144.0    53   96.4    11    182.2    15.0   1007.5  0.00  
 144    9:00  137.0    53   95.3    11    171.1    15.5   1007.5  0.00  
 144    9:10  178.0    53   95.2    13    160.5    16.4   1007.5  0.00  
 144    9:20  191.0    53   95.2    13    158.4    16.5   1007.5  0.00  
 144    9:30  208.0    54   95.3    13    160.2    16.1   1007.5  0.00  
 144    9:40  210.0    53   95.0    14    161.0    17.2   1007.5  0.00  
 144    9:50  205.0    53   95.2    14    161.3    16.8   1007.5  0.00  
 144   10:00  192.0    53   95.2    14    163.8    18.0   1007.5  0.00  
 144   10:10  202.0    53   95.1    12    156.7    15.6   1007.5  0.00  
 144   10:20  198.0    54   94.7    12    164.3    16.9   1007.1  0.00  
 144   10:30  168.0    53   94.4    13    160.0    15.9   1007.1  0.00  
 144   10:40  201.0    54   94.5    14    159.5    18.3   1007.1  0.00  
 144   10:50  228.0    54   93.8    15    159.3    19.1   1007.1  0.00  
 144   11:00  261.0    54   93.5    16    157.9    20.1   1006.8  0.00  
 144   11:10  301.0    54   92.7    14    165.6    19.2   1006.8  0.00  
 144   11:20  326.0    54   91.2    16    157.3    19.2   1006.8  0.00  
 144   11:30  427.0    55   90.7    17    155.0    21.7   1006.8  0.00  
 144   11:40  343.0    55   89.8    17    157.4    22.9   1006.8  0.00  
 144   11:50  383.0    55   89.4    16    162.6    22.5   1006.8  0.00  
 144   12:00  359.0    55   88.5    16    160.0    20.8   1006.8  0.00  
 144   12:10  369.0    55   89.1    15    161.3    19.4   1006.8  0.00  
 144   12:20  370.0    55   88.8    16    163.1    19.1   1006.8  0.00  

Return to Pt. Reyes graphs page.


Western Regional Climate Center,wrcc@dri.edu